Regional Weather Roundup
Issued by NWS Goodland, KS

Home | Current Version | Previous Version | Text Only | Print | Product List | Glossary On
Versions: 1 2 3 4 5 6 7 8 9 10 11 12 13 14 15 16 17 18 19 20 21 22 23 24 25 26 27 28 29 30 31 32 33 34 35 36 37 38 39 40 41 42 43 44 45 46 47 48 49 50
000
ASUS43 KGLD 250008
RWRGLD

GOODLAND FORECAST AREA HOURLY WEATHER ROUNDUP
NATIONAL WEATHER SERVICE GOODLAND KS
500 PM MST TUE JAN 24 2017

...OFFICIAL OBSERVATIONS...

CITY           SKY/WX    TMP DP  RH WIND       PRES   REMARKS
GOODLAND KS    CLOUDY    26  20  77 NW23G33   29.63R WCI  11
HILL CITY KS   CLOUDY    35  30  82 NW10      29.58R
IMPERIAL NEB   CLOUDY    26  20  77 NW24G33   29.64R WCI  11
MCCOOK NEB     CLOUDY    31  26  82 NW24G30   29.60R WCI  17
AKRON CO       CLOUDY    22  14  71 N24G36    29.67R WCI   5
BURLINGTON CO  CLOUDY    26  20  77 N22G31    29.65R WCI  12
LIMON CO       CLOUDY    22  17  81 N17       29.65R WCI   8
$$

...UNOFFICIAL OBSERVATIONS...

CITY           SKY/WX    TMP DP  RH WIND       PRES   REMARKS
LENORA KS        N/A     33  32  96 NW7         N/A
NORTON KS      CLOUDY    34  27  75 W8        29.57R
SHARON SPRINGS   N/A     29  24  80 NW20G26     N/A  WCI  16
TRENTON NEB      N/A     29  32 100 NW17        N/A  WCI  17
KIT CARSON CO    N/A     26  19  74 MISG        N/A
$$




USA.gov is the U.S. government's official web portal to all federal, state and local government web resources and services.